Location: Gammelsbach
(49.5261°N, 8.9630°E)
Time: 20:19:39
(UTC+00:00)

USA 59 Rocket - Pass Details

Date: 17 June 2025
Orbit: 372 x 1693 km, 63.3° (Epoch: 16 July)

Event Time Altitude Azimuth Distance (km) Brightness Sun altitude
Rises 23:22:09 0° 310° (NW) 2,460 3.8 -17.1°
Reaches altitude 10° 23:24:07 10° 301° (WNW) 1,692 2.7 -17.1°
Maximum altitude 23:27:33 36° 233° (SW) 936 0.7 -17.1°
Enters shadow 23:28:35 32° 203° (SSW) 1,078 0.8 -17.1°
